Terug naar catalogus

EXPLORER 40

INJUN-5

ActiefWetenschapPO
NORAD 3338·PAYLOAD·🇺🇸 United States

Gelanceerd Aug 8, 1968 vanaf Vandenberg Space Force Base

Loading…

Volgende Passages (komende 24 uur)

TLE

VersSource: Space-Track

Epoch: Sep 14, 2026, 13:34 UTC

1 03338U 68066B   26257.56581731  .00000047  00000-0  31761-4 0  9994
2 03338  80.6661  18.5346 1129525 117.4028 254.6481 12.23589308589240

Volg EXPLORER 40 in realtime met AllMySat

Download on the App Store